Location: Pilipovskiye Korichintsy
(49.1833°N, 27.4667°E)
Time: 12:22:44
(UTC+00:00)

Cosmos 1818 - Pass Details

Date: 14 July 2020
Orbit: 777 x 796 km, 65.0° (Epoch: 07 August)

Event Time Altitude Azimuth Distance (km) Brightness Sun altitude
Rises 01:16:59 0° 319° (NW) 3,309 6.9 -8.6°
Reaches altitude 10° 01:19:26 10° 318° (NW) 2,376 6.1 -8.3°
Maximum altitude 01:24:52 70° 235° (SW) 850 3.6 -7.7°
Drops below altitude 10° 01:30:15 10° 153° (SSE) 2,358 5.8 -7.1°
Sets 01:32:40 0° 151° (SSE) 3,282 6.6 -6.8°
